Temp
-13 -13 -14 -14 -14 -14 -14 -14 -14 -14 -14 -15 -14 -13 -12 -12 -12 -12 -11 -11 -10 -11 -12 -11 -11 -11 -11 -11 -11 -11 -11 -11 -11 -11 -11 -11 -11 -12 -12 -11 -11 -11 -11 -11
-14 -14 -14 -14 -15 -15 -16 -16 -15 -15 -15 -16 -15 -15 -14 -13 -12 -13 -11 -11 -11 -11 -11 -11 -11 -11 -11 -11 -10 -11 -11 -11 -11 -11 -11 -11 -11 -12 -12 -12 -12 -12 -12 -12
-14 -14 -14 -15 -15 -16 -16 -17 -16 -16 -16 -16 -16 -15 -15 -14 -13 -13 -12 -12 -11 -11 -11 -11 -11 -12 -11 -11 -11 -11 -11 -11 -12 -12 -12 -12 -13 -12 -13 -12 -12 -12 -12 -12
-14 -15 -16 -16 -16 -17 -17 -18 -18 -18 -18 -17 -17 -16 -16 -16 -15 -13 -12 -12 -11 -12 -12 -11 -11 -11 -11 -11 -12 -11 -12 -12 -12 -12 -12 -13 -13 -13 -13 -13 -13 -13 -13 -13
-15 -16 -16 -16 -17 -17 -18 -18 -19 -19 -19 -18 -18 -17 -15 -16 -17 -13 -13 -12 -12 -12 -12 -12 -12 -12 -12 -12 -12 -12 -12 -12 -12 -12 -12 -13 -13 -13 -13 -13 -13 -13 -13 -13
-15 -16 -16 -16 -17 -17 -17 -17 -18 -18 -18 -18 -17 -17 -15 -15 -15 -15 -13 -12 -12 -12 -12 -12 -12 -12 -12 -12 -12 -12 -12 -12 -12 -12 -13 -13 -13 -13 -13 -13 -13 -14 -14 -14
-15 -15 -16 -16 -16 -16 -17 -17 -17 -17 -17 -18 -18 -16 -15 -16 -15 -15 -13 -13 -13 -12 -13 -12 -12 -12 -12 -13 -13 -13 -12 -13 -13 -13 -14 -14 -13 -13 -13 -14 -13 -14 -14 -14
-15 -15 -15 -15 -15 -16 -16 -16 -16 -16 -16 -15 -15 -15 -15 -13 -14 -14 -14 -13 -12 -12 -12 -12 -12 -12 -13 -13 -13 -13 -13 -13 -14 -14 -14 -13 -14 -14 -14 -14 -14 -14 -14 -14
-15 -16 -15 -15 -15 -15 -16 -15 -15 -15 -14 -16 -14 -14 -15 -14 -14 -13 -13 -12 -14 -13 -13 -12 -12 -12 -12 -13 -13 -13 -13 -14 -13 -13 -13 -14 -14 -14 -14 -14 -14 -14 -14 -14
-15 -15 -15 -15 -15 -15 -15 -15 -15 -14 -14 -15 -15 -15 -15 -15 -15 -14 -14 -14 -14 -13 -13 -13 -13 -13 -13 -13 -13 -13 -14 -14 -14 -14 -14 -14 -14 -14 -14 -14 -15 -15 -15 -15
-15 -15 -15 -14 -16 -15 -15 -15 -15 -15 -15 -15 -15 -15 -15 -15 -15 -15 -14 -14 -14 -14 -13 -13 -13 -13 -13 -13 -14 -14 -14 -14 -14 -14 -14 -14 -14 -15 -15 -15 -15 -15 -15 -15
-15 -14 -15 -15 -16 -15 -14 -15 -14 -15 -15 -15 -15 -15 -15 -15 -15 -15 -14 -14 -14 -14 -14 -14 -14 -14 -14 -14 -14 -14 -14 -14 -14 -14 -14 -15 -15 -15 -15 -15 -15 -15 -15 -15
-15 -15 -15 -15 -15 -15 -15 -15 -15 -14 -15 -14 -15 -15 -15 -15 -15 -15 -15 -14 -14 -14 -14 -14 -14 -14 -14 -14 -14 -14 -15 -15 -15 -15 -15 -15 -15 -15 -15 -15 -15 -15 -16 -16
-15 -15 -15 -15 -15 -15 -15 -15 -15 -15 -14 -14 -15 -14 -15 -15 -15 -15 -15 -15 -15 -15 -15 -15 -15 -14 -14 -14 -14 -15 -15 -15 -15 -15 -15 -15 -15 -15 -15 -15 -15 -16 -16 -17
-15 -15 -15 -15 -15 -15 -15 -15 -15 -15 -15 -15 -15 -15 -15 -15 -15 -15 -15 -15 -15 -15 -15 -15 -15 -14 -14 -15 -15 -15 -15 -15 -15 -15 -15 -15 -14 -15 -15 -16 -16 -16 -17 -18
-15 -15 -15 -15 -15 -15 -15 -15 -15 -15 -15 -15 -15 -15 -15 -15 -15 -15 -15 -15 -15 -15 -15 -15 -15 -15 -15 -15 -15 -15 -15 -15 -14 -14 -14 -15 -15 -15 -16 -16 -17 -17 -18 -19
-15 -15 -15 -15 -15 -15 -15 -15 -16 -15 -15 -15 -15 -15 -15 -15 -15 -15 -15 -15 -15 -15 -15 -15 -15 -15 -15 -15 -15 -15 -14 -14 -14 -14 -15 -15 -15 -15 -16 -17 -18 -19 -19 -20
-15 -15 -15 -15 -15 -15 -15 -16 -16 -16 -16 -15 -15 -15 -15 -15 -15 -15 -15 -15 -15 -15 -15 -15 -15 -15 -15 -14 -14 -14 -14 -14 -14 -14 -15 -15 -15 -16 -16 -17 -19 -20 -21 -22
-15 -15 -15 -15 -16 -15 -16 -16 -16 -16 -16 -16 -15 -15 -15 -15 -15 -15 -15 -15 -15 -15 -15 -15 -15 -15 -14 -14 -14 -14 -14 -14 -15 -15 -15 -15 -15 -16 -17 -19 -21 -22 -23 -23
-15 -15 -15 -15 -16 -15 -16 -16 -16 -16 -16 -16 -16 -16 -15 -15 -16 -15 -15 -15 -15 -15 -15 -15 -15 -14 -14 -14 -14 -14 -14 -15 -15 -15 -15 -15 -16 -17 -19 -21 -23 -24 -24 -24
-15 -15 -15 -16 -16 -15 -16 -16 -16 -16 -16 -16 -16 -16 -16 -16 -16 -16 -16 -16 -16 -16 -15 -15 -15 -15 -14 -14 -14 -14 -15 -15 -15 -15 -15 -15 -17 -18 -20 -23 -25 -25 -25 -25
-15 -15 -16 -16 -15 -15 -16 -16 -16 -16 -16 -16 -16 -16 -16 -16 -16 -16 -16 -16 -16 -16 -16 -15 -15 -15 -14 -14 -14 -15 -15 -15 -15 -15 -15 -17 -17 -18 -20 -23 -24 -25 -25 -24
-15 -15 -16 -16 -15 -16 -16 -16 -17 -17 -17 -16 -16 -16 -16 -16 -16 -16 -16 -16 -16 -16 -16 -15 -15 -15 -15 -15 -15 -15 -15 -14 -15 -15 -17 -17 -17 -18 -19 -20 -22 -22 -22 -22
-15 -15 -15 -16 -16 -15 -16 -16 -16 -17 -17 -17 -17 -17 -17 -17 -17 -16 -16 -16 -16 -16 -15 -15 -15 -15 -15 -15 -15 -15 -14 -15 -15 -17 -18 -17 -18 -18 -19 -19 -20 -21 -21 -22
-16 -15 -16 -16 -16 -16 -16 -16 -16 -16 -17 -17 -17 -17 -17 -17 -16 -17 -17 -17 -16 -16 -15 -15 -15 -15 -15 -15 -15 -15 -15 -15 -17 -18 -18 -18 -19 -19 -19 -20 -20 -21 -21 -21
-16 -17 -16 -16 -16 -16 -16 -16 -16 -16 -16 -17 -17 -17 -17 -17 -17 -17 -17 -16 -16 -16 -15 -15 -15 -15 -15 -15 -15 -15 -15 -16 -18 -19 -19 -19 -19 -19 -20 -20 -20 -20 -20 -20
Height
5746 5743 5739 5735 5730 5726 5722 5720 5721 5726 5726 5723 5729 5732 5739 5749 5756 5762 5767 5773 5783 5788 5794 5796 5798 5799 5807 5802 5800 5808 5812 5814 5812 5813 5812 5811 5807 5807 5809 5811 5810 5809 5807 5806
5742 5737 5731 5723 5717 5714 5711 5708 5709 5709 5711 5710 5715 5719 5726 5734 5747 5750 5758 5765 5774 5778 5785 5789 5791 5793 5797 5803 5784 5799 5805 5805 5808 5806 5806 5803 5799 5803 5805 5805 5803 5802 5801 5800
5736 5730 5723 5716 5711 5706 5702 5696 5695 5694 5697 5696 5701 5706 5714 5721 5733 5742 5750 5757 5765 5772 5777 5783 5788 5788 5791 5796 5799 5800 5801 5801 5801 5800 5800 5797 5797 5797 5799 5798 5796 5795 5794 5792
5732 5724 5716 5710 5705 5699 5693 5689 5685 5683 5683 5685 5694 5696 5705 5713 5721 5732 5741 5748 5755 5763 5767 5774 5779 5784 5788 5788 5790 5794 5796 5797 5796 5794 5792 5791 5791 5793 5792 5790 5788 5787 5785 5783
5726 5719 5711 5705 5700 5694 5689 5684 5679 5676 5675 5676 5684 5687 5700 5708 5713 5722 5734 5741 5749 5755 5762 5767 5774 5778 5781 5781 5784 5786 5789 5790 5788 5788 5784 5786 5785 5785 5783 5781 5780 5778 5776 5774
5724 5716 5709 5704 5699 5694 5688 5683 5678 5673 5671 5671 5680 5683 5695 5701 5709 5717 5727 5736 5742 5750 5755 5760 5768 5772 5774 5777 5778 5779 5782 5783 5780 5778 5777 5779 5777 5776 5775 5773 5771 5769 5767 5764
5724 5715 5710 5705 5702 5697 5691 5684 5679 5676 5674 5672 5675 5678 5688 5698 5706 5711 5720 5727 5735 5743 5749 5753 5759 5764 5770 5772 5773 5773 5776 5775 5775 5773 5772 5771 5770 5768 5766 5763 5762 5759 5758 5755
5724 5717 5713 5707 5703 5698 5691 5685 5679 5677 5677 5678 5678 5681 5691 5692 5697 5706 5712 5724 5728 5738 5746 5750 5755 5758 5761 5765 5766 5766 5766 5769 5768 5767 5766 5764 5762 5760 5758 5755 5752 5750 5747 5745
5724 5721 5716 5708 5705 5702 5695 5690 5686 5684 5683 5681 5681 5687 5688 5689 5701 5698 5713 5715 5725 5734 5740 5745 5749 5753 5756 5758 5761 5761 5761 5760 5760 5760 5758 5757 5755 5752 5750 5746 5742 5740 5736 5732
5727 5722 5715 5711 5710 5705 5699 5695 5693 5685 5688 5687 5690 5691 5692 5699 5704 5711 5716 5720 5724 5730 5735 5739 5744 5747 5751 5753 5754 5755 5756 5756 5754 5753 5752 5749 5747 5744 5740 5737 5733 5729 5724 5720
5730 5722 5721 5714 5711 5709 5705 5703 5699 5698 5697 5696 5696 5698 5701 5705 5708 5712 5717 5720 5724 5728 5732 5736 5740 5743 5745 5747 5749 5750 5750 5749 5748 5746 5743 5742 5738 5734 5730 5727 5722 5718 5713 5708
5732 5727 5721 5718 5716 5712 5709 5709 5708 5705 5703 5701 5703 5705 5705 5709 5711 5715 5718 5721 5724 5726 5730 5734 5737 5739 5741 5742 5743 5743 5742 5741 5740 5738 5735 5731 5728 5724 5720 5715 5711 5705 5700 5694
5734 5730 5725 5720 5718 5714 5712 5712 5710 5709 5709 5707 5705 5709 5710 5712 5714 5717 5720 5721 5723 5726 5729 5731 5733 5734 5736 5736 5736 5736 5735 5733 5731 5728 5725 5722 5718 5714 5709 5704 5698 5691 5684 5678
5733 5730 5727 5723 5720 5718 5716 5714 5713 5712 5712 5711 5711 5711 5712 5713 5715 5717 5719 5721 5723 5725 5726 5728 5729 5730 5730 5730 5729 5729 5727 5725 5723 5721 5718 5713 5709 5703 5697 5691 5684 5676 5669 5661
5733 5730 5728 5726 5723 5720 5719 5717 5715 5715 5714 5714 5714 5714 5714 5715 5716 5717 5718 5720 5721 5722 5724 5725 5725 5725 5725 5725 5724 5722 5721 5718 5716 5712 5708 5703 5698 5692 5684 5676 5668 5659 5651 5642
5731 5729 5728 5726 5724 5722 5721 5720 5718 5717 5716 5716 5716 5716 5715 5716 5716 5717 5718 5719 5719 5720 5720 5721 5721 5720 5720 5719 5718 5716 5713 5710 5707 5704 5699 5692 5686 5678 5669 5660 5651 5641 5632 5623
5729 5727 5726 5725 5723 5722 5722 5720 5720 5719 5718 5717 5717 5717 5716 5716 5716 5717 5717 5717 5718 5718 5717 5717 5717 5716 5715 5713 5711 5709 5706 5702 5698 5693 5687 5679 5671 5662 5652 5642 5631 5621 5612 5603
5727 5725 5724 5723 5722 5721 5720 5719 5719 5719 5718 5717 5717 5717 5716 5716 5716 5716 5715 5715 5715 5715 5714 5713 5712 5710 5709 5707 5705 5702 5698 5693 5687 5681 5673 5665 5655 5644 5633 5622 5610 5600 5591 5584
5724 5723 5721 5721 5720 5720 5719 5719 5719 5718 5718 5717 5716 5715 5714 5714 5714 5713 5712 5712 5711 5710 5709 5708 5706 5705 5703 5700 5697 5693 5689 5683 5676 5668 5658 5649 5638 5626 5613 5599 5588 5580 5573 5568
5720 5720 5720 5718 5718 5717 5718 5717 5716 5716 5716 5715 5714 5713 5712 5712 5712 5711 5710 5708 5707 5705 5703 5702 5700 5699 5696 5693 5689 5684 5678 5671 5663 5654 5644 5633 5620 5606 5591 5578 5569 5564 5560 5557
5716 5716 5716 5714 5714 5714 5715 5714 5713 5714 5716 5712 5711 5710 5710 5709 5709 5707 5706 5705 5703 5700 5698 5696 5694 5692 5689 5685 5680 5675 5668 5660 5651 5640 5629 5616 5601 5586 5572 5562 5555 5552 5550 5547
5710 5710 5711 5710 5710 5711 5711 5711 5711 5711 5710 5709 5708 5707 5706 5706 5704 5703 5702 5699 5697 5694 5692 5690 5688 5685 5681 5676 5671 5665 5657 5648 5638 5626 5613 5600 5587 5573 5562 5553 5548 5545 5542 5540
5704 5705 5705 5706 5706 5705 5705 5706 5706 5706 5706 5705 5705 5704 5703 5701 5700 5698 5696 5693 5690 5688 5686 5684 5682 5678 5674 5669 5662 5654 5646 5635 5624 5612 5598 5588 5578 5567 5558 5551 5546 5542 5539 5536
5697 5698 5699 5699 5699 5699 5700 5700 5701 5701 5701 5701 5701 5700 5699 5697 5695 5693 5691 5687 5684 5682 5680 5678 5675 5672 5667 5661 5653 5644 5634 5623 5610 5597 5588 5581 5572 5563 5557 5551 5546 5542 5538 5535
5691 5692 5692 5692 5692 5691 5693 5694 5695 5695 5695 5696 5696 5695 5694 5693 5691 5688 5685 5681 5679 5677 5675 5672 5669 5665 5659 5652 5644 5635 5623 5610 5597 5586 5580 5574 5568 5560 5554 5548 5544 5539 5535 5532
5683 5683 5683 5686 5683 5682 5685 5688 5689 5688 5689 5689 5690 5689 5689 5687 5686 5683 5679 5676 5674 5672 5669 5667 5663 5658 5651 5644 5635 5624 5611 5597 5584 5577 5573 5568 5563 5557 5550 5546 5540 5535 5531 5527
Wind_Speed
29 29 32 36 40 41 44 47 47 45 46 51 48 57 56 49 48 49 52 53 49 47 46 47 47 49 50 35 45 22 26 32 34 32 29 31 21 17 21 24 25 28 30 30
25 29 35 37 34 32 34 40 41 44 45 49 50 50 51 55 47 49 51 53 45 48 46 47 49 48 45 36 25 29 32 35 30 26 28 27 21 21 25 29 30 30 31 33
31 33 28 25 26 28 31 35 37 40 41 47 50 51 48 50 52 50 50 50 54 46 44 46 46 43 43 41 41 36 36 34 29 29 29 33 27 29 31 33 31 32 32 33
28 31 29 26 28 28 29 30 31 30 31 40 37 42 43 41 45 49 50 51 51 45 46 44 46 43 39 41 36 37 33 30 28 31 34 29 32 33 33 34 34 34 34 34
36 33 24 26 26 23 22 23 27 20 31 25 29 37 36 36 34 47 41 48 47 46 45 42 41 41 39 38 35 38 35 31 35 36 32 32 36 34 32 33 34 35 36 37
34 33 22 23 24 25 22 14 15 12 15 25 22 33 27 25 17 27 35 39 43 44 43 41 38 40 43 40 40 40 40 38 32 32 31 34 36 34 34 35 36 37 38 40
35 29 23 20 22 24 20 18 16 22 11 4 24 25 14 34 25 25 33 31 33 39 39 40 37 37 35 36 35 41 36 29 33 34 36 36 35 37 37 38 39 40 41 43
31 30 25 23 24 29 26 26 26 24 8 4 6 9 31 27 38 33 25 24 33 33 35 34 33 35 36 35 37 34 35 35 34 36 36 36 37 38 39 39 43 43 45 47
29 28 22 23 23 27 29 22 22 16 13 3 12 16 18 19 27 20 27 25 18 30 30 31 32 33 36 37 37 36 36 35 36 36 35 36 39 41 40 44 44 47 50 51
27 25 30 20 22 24 27 25 27 25 19 19 13 13 15 11 9 19 21 23 22 24 27 29 29 31 31 32 33 31 31 31 34 35 35 38 40 41 43 45 48 51 52 52
24 25 23 20 24 22 21 23 24 25 18 11 15 12 12 7 9 10 18 20 21 22 22 23 24 24 25 25 24 26 28 30 32 35 38 39 41 44 46 49 52 52 53 57
20 20 22 20 18 23 15 16 17 13 16 11 9 11 13 8 10 9 11 12 13 13 13 15 16 18 19 21 22 24 27 30 34 36 38 41 43 47 50 51 52 56 60 63
17 17 18 19 21 24 18 12 11 11 16 7 8 7 8 12 9 8 8 8 11 9 12 13 15 17 18 20 23 26 29 32 35 37 40 43 47 49 51 54 58 62 65 67
16 15 17 16 15 16 17 11 9 7 7 8 4 4 10 8 12 11 10 9 10 11 13 14 16 18 21 23 25 27 30 33 36 39 42 45 47 51 56 60 64 66 68 70
13 14 12 13 12 11 13 12 8 7 7 5 3 4 2 3 10 10 11 11 10 12 14 16 19 21 22 24 26 28 32 35 38 40 42 46 52 56 60 64 66 69 70 71
15 13 11 10 9 9 7 9 8 7 6 4 3 3 2 4 5 6 8 10 12 14 15 17 19 21 23 25 28 31 33 36 36 41 47 52 56 60 64 67 69 71 73 74
16 13 12 10 8 8 6 6 6 6 7 6 6 4 4 6 7 8 10 11 13 14 16 18 20 23 25 27 29 30 32 36 42 47 51 56 60 64 67 71 74 75 74 71
14 13 11 12 9 7 6 7 7 8 7 7 7 8 8 8 9 10 12 13 15 17 19 21 23 25 26 27 27 31 36 42 47 52 55 59 63 68 73 77 78 74 69 61
13 13 12 12 12 9 7 8 8 8 9 9 9 9 10 11 12 13 14 15 16 18 21 23 24 24 24 27 31 36 41 46 50 53 58 63 69 76 80 79 71 62 55 49
14 14 14 15 15 14 7 10 10 10 11 10 10 11 11 10 10 12 14 16 18 20 22 22 21 23 26 30 35 40 45 47 51 56 62 70 76 80 76 68 57 48 44 40
15 16 16 16 16 18 13 14 15 13 12 12 12 12 11 11 12 14 16 19 21 22 22 22 23 25 28 33 39 42 45 50 55 62 68 74 73 69 61 49 41 36 34 32
18 18 17 20 18 18 14 17 18 16 14 13 13 12 13 13 14 16 18 21 24 24 23 23 24 27 31 37 40 43 47 54 60 67 70 63 56 47 39 32 26 26 25 24
22 20 20 22 20 20 18 19 20 20 18 18 17 16 15 17 19 22 24 28 26 24 23 23 25 29 35 37 42 46 51 59 64 66 60 42 32 27 24 19 17 16 15 15
24 23 21 23 24 23 21 21 21 22 23 21 21 21 20 20 20 22 27 27 23 21 21 23 27 31 34 39 43 49 56 62 65 60 39 29 23 19 17 16 16 16 16 17
27 23 23 25 25 28 25 25 21 22 24 25 24 23 23 23 23 23 26 20 19 20 20 24 29 31 36 40 46 53 59 64 62 43 27 26 23 20 19 19 19 20 20 19
28 26 28 26 30 33 27 24 22 22 21 23 24 24 24 24 24 24 23 18 19 19 21 26 29 33 37 42 49 55 61 63 54 28 24 24 23 23 22 22 23 23 21 22
Wind_Direction
308 306 298 294 292 285 277 273 267 266 265 259 255 252 247 238 234 235 235 236 233 236 236 241 246 251 252 257 263 264 272 288 276 283 278 273 267 277 289 287 286 288 290 290
323 317 310 303 298 292 283 275 270 264 255 252 251 250 249 243 231 234 232 234 238 233 231 238 245 252 257 262 255 279 280 283 300 293 279 269 283 292 290 288 290 290 289 290
330 322 319 306 304 298 295 288 283 272 256 250 247 245 247 242 236 231 232 232 229 235 235 237 242 249 254 259 261 263 269 282 291 281 272 279 293 290 292 293 291 290 288 288
329 334 324 321 315 305 307 297 292 285 269 249 246 247 243 240 235 230 228 233 232 232 233 231 241 248 253 258 257 262 270 272 267 269 268 279 289 288 290 289 291 289 289 289
348 338 335 332 333 331 326 309 285 274 261 250 232 235 241 234 225 230 226 231 233 231 234 238 238 245 248 252 262 266 269 267 267 272 277 287 288 288 288 290 290 289 291 292
347 346 346 355 359 354 333 316 317 302 288 258 224 230 222 199 192 242 231 229 231 232 234 237 234 238 249 254 259 268 271 273 270 274 282 285 288 290 291 291 292 289 294 296
0 7 13 16 8 357 334 320 309 324 17 17 190 210 176 199 198 226 227 218 219 221 229 234 239 243 245 251 257 264 264 269 271 276 281 285 286 289 293 292 291 291 295 295
3 15 23 23 16 2 359 354 352 347 326 300 320 238 179 186 188 205 193 231 234 224 226 232 238 242 246 252 257 263 267 269 271 278 283 285 288 289 292 291 292 293 295 296
7 8 7 22 21 11 19 17 28 44 55 107 73 104 69 94 186 176 190 206 212 215 223 228 232 237 242 250 257 264 268 272 278 280 282 284 285 289 291 292 293 293 295 295
8 6 5 27 25 20 13 8 24 23 68 131 68 56 74 90 127 190 200 204 207 209 217 226 233 240 246 251 255 261 266 270 274 278 280 282 287 290 290 292 293 294 296 296
8 5 14 29 18 20 17 23 35 90 89 103 135 113 116 133 164 189 195 207 209 213 222 231 238 245 248 253 258 263 265 269 273 276 281 285 289 291 291 292 295 295 294 295
5 11 0 24 6 17 11 32 38 61 37 106 151 153 151 159 182 194 184 203 206 213 225 232 238 245 252 258 262 264 269 272 277 283 286 289 290 291 293 294 293 294 295 296
359 2 11 356 12 8 3 27 39 36 33 58 140 159 191 172 181 217 213 203 209 217 236 245 251 257 262 264 267 272 275 279 281 286 289 290 292 293 292 294 295 295 296 297
349 358 354 7 8 4 8 2 21 11 41 26 355 317 195 225 208 212 223 228 236 244 250 256 260 264 267 271 273 275 278 283 287 288 290 291 291 293 295 295 295 296 297 296
340 342 348 350 5 4 3 11 4 354 359 338 332 354 3 253 244 242 246 236 241 251 258 262 265 267 270 274 279 283 285 288 290 292 292 293 294 294 295 296 296 296 296 296
327 328 334 332 346 358 3 4 6 8 22 30 19 357 317 295 279 269 264 264 266 265 265 268 271 276 281 284 285 287 291 292 293 295 294 295 297 298 298 298 298 297 296 295
314 316 319 320 327 338 2 345 343 353 350 347 343 327 293 289 282 278 277 275 276 278 280 281 281 283 283 287 291 292 292 296 296 297 300 301 301 301 300 298 297 296 296 297
299 309 307 305 310 326 325 333 325 327 333 327 325 323 320 313 305 298 292 290 288 286 285 286 287 289 291 291 292 295 297 300 302 305 305 305 304 303 301 299 298 298 299 297
288 297 300 294 294 294 305 305 311 316 317 317 314 310 305 302 299 297 296 296 296 295 293 290 290 291 292 294 299 302 305 307 308 308 309 308 307 304 303 301 301 300 296 296
275 281 287 291 286 282 288 283 288 299 308 307 308 305 304 306 307 303 301 302 306 307 302 294 290 292 296 302 306 309 310 311 311 311 310 309 308 307 306 304 301 299 299 299
269 271 274 279 282 284 278 274 280 287 291 295 297 297 295 298 299 300 301 301 301 304 303 298 296 299 305 308 311 312 314 314 313 313 312 312 311 311 312 311 306 304 303 302
267 266 268 267 275 282 279 268 272 276 280 282 281 286 289 295 302 308 313 309 302 298 301 301 303 307 311 314 314 316 316 316 316 315 315 315 316 321 326 323 316 310 309 311
261 268 261 264 267 268 270 268 267 270 273 278 279 281 281 287 294 300 306 310 305 298 299 303 308 314 317 316 317 318 320 318 317 317 318 316 331 346 351 348 336 329 330 323
264 263 267 269 268 268 266 269 269 268 271 273 276 279 283 288 296 300 308 306 300 297 299 307 316 319 317 319 321 322 320 319 319 320 315 318 329 342 344 342 338 334 328 321
263 263 263 263 266 264 260 262 270 273 271 273 276 281 285 288 293 298 312 303 299 297 305 318 320 319 320 323 324 323 323 321 322 319 311 317 322 330 333 332 330 327 325 323
260 257 257 257 261 267 265 264 263 267 273 274 275 278 283 293 294 301 308 304 302 303 319 320 319 322 324 326 326 326 326 326 324 309 310 316 320 324 327 327 325 324 324 322